Weather History for Kirksville, MO

Change the Weather History Date:

Thursday, January 31, 2013

  Actual Average Record
Temperature  
Mean Temperature 13 °F 27 °F  
Max Temperature 22 °F 36 °F 69 °F (1989)
Min Temperature 3 °F 17 °F -15 °F (1936)
Degree Days  
Heating Degree Days 52 38  
Month to date heating degree days 1134 1206  
Since 1 July heating degree days 3376 3547  
Cooling Degree Days 0 0  
Month to date cooling degree days 0 0  
Year to date cooling degree days 0 0  
Moisture  
Dew Point 3 °F    
Average Humidity 66    
Maximum Humidity 74    
Minimum Humidity 58    
Precipitation  
Precipitation T in 0.07 in 0.40 in (1985)
Month to date precipitation 2.10 1.27  
Year to date precipitation 2.10 1.27  
Sea Level Pressure  
Sea Level Pressure 30.17 in    
Wind  
Wind Speed 13 mph (WNW)    
Max Wind Speed 14 mph    
Max Gust Speed 18 mph    
Visibility 10 miles    
Events Snow    
T = Trace of Precipitation, MM = Missing Value Source: NWS Daily Summary

Daily Weather History Graph

Daily Weather History Graph

Search for Another Location

Airport:

Trip Planner

Search our weather history database for the weather conditions in past years. The results will help you decide how hot, cold, wet, or windy it might be!

Date:

Astronomy

Jan. 31, 2013 Rise Set
Actual Time 7:19 AM CST 5:28 PM CST
Civil Twilight 6:50 AM CST 5:57 PM CST
Nautical Twilight 6:18 AM CST 6:29 PM CST
Astronomical Twilight 5:46 AM CST 7:01 PM CST
Moon 10:31 PM CST (1/31) 9:19 AM CST (1/31)
Length of Visible Light 11h 06m
Length of Day
10h 08m
Waning Gibbous, 79% of the Moon is Illuminated
Jan 31
Waning Gibbous
Feb 3
Last Quarter
Feb 10
New
Feb 17
First Quarter
Feb 25
Full

Hourly Weather History & Observations

Time (CST) Temp. Windchill Dew Point Humidity Pressure Visibility Wind Dir Wind Speed Gust Speed Precip Events Conditions
12:55 AM 21.9 °F 11.0 °F 12.9 °F 68% 29.94 in 10.0 mi WSW 10.4 mph - N/A   Overcast
1:55 AM 21.9 °F 10.4 °F 15.1 °F 75% 29.94 in 9.0 mi West 11.5 mph 19.6 mph 0.00 in Snow Light Snow
2:55 AM 21.0 °F 7.6 °F 14.0 °F 74% 29.95 in 10.0 mi West 15.0 mph 20.7 mph 0.00 in   Overcast
3:55 AM 19.9 °F 6.7 °F 12.9 °F 74% 29.95 in 10.0 mi West 13.8 mph 21.9 mph N/A   Scattered Clouds
4:55 AM 17.1 °F 4.3 °F 10.0 °F 74% 29.97 in 10.0 mi WNW 11.5 mph - N/A   Clear
5:55 AM 15.1 °F 2.5 °F 9.0 °F 77% 29.98 in 10.0 mi West 10.4 mph - N/A   Overcast
6:55 AM 16.0 °F 3.6 °F 9.0 °F 74% 30.00 in 10.0 mi WNW 10.4 mph - N/A   Overcast
7:55 AM 15.1 °F 0.5 °F 8.1 °F 74% 30.03 in 10.0 mi WNW 13.8 mph 18.4 mph N/A   Overcast
8:48 AM 14.0 °F 1.2 °F 6.8 °F 73% 30.00 in 10.0 mi NW 10.4 mph - N/A   Overcast
8:55 AM 14.0 °F 1.2 °F 7.0 °F 74% 30.07 in 10.0 mi WNW 10.4 mph - N/A   Overcast
9:55 AM 15.1 °F -0.6 °F 5.0 °F 64% 30.10 in 10.0 mi WNW 16.1 mph 20.7 mph N/A   Mostly Cloudy
10:55 AM 15.1 °F -0.6 °F 3.0 °F 59% 30.13 in 10.0 mi West 16.1 mph 20.7 mph N/A   Clear
11:55 AM 14.0 °F -1.4 °F 3.0 °F 62% 30.14 in 10.0 mi WNW 15.0 mph 21.9 mph N/A   Overcast
12:55 PM 14.0 °F -3.0 °F 1.9 °F 59% 30.16 in 10.0 mi NNW 18.4 mph 23.0 mph N/A   Clear
2:55 PM 12.9 °F -2.8 °F 3.9 °F 67% 30.22 in 10.0 mi WNW 15.0 mph 26.5 mph N/A   Overcast
3:17 PM 12.2 °F -4.3 °F 1.4 °F 62% 30.17 in 10.0 mi NW 16.1 mph 23.0 mph N/A   Mostly Cloudy
3:24 PM 12.2 °F -5.3 °F 1.4 °F 62% 30.17 in 10.0 mi WNW 18.4 mph 24.2 mph N/A   Scattered Clouds
3:55 PM 10.9 °F -5.4 °F 1.0 °F 64% 30.25 in 10.0 mi WNW 15.0 mph 24.2 mph N/A   Mostly Cloudy
4:55 PM 9.0 °F -8.5 °F -0.9 °F 64% 30.28 in 10.0 mi WNW 16.1 mph 27.6 mph N/A   Overcast
5:04 PM 8.6 °F -9.5 °F -0.4 °F 67% 30.22 in 10.0 mi WNW 17.3 mph 28.8 mph N/A   Overcast
5:55 PM 7.0 °F -10.4 °F -2.0 °F 67% 30.32 in 10.0 mi WNW 15.0 mph 24.2 mph N/A   Overcast
6:30 PM 6.8 °F -10.7 °F -2.2 °F 67% 30.28 in 10.0 mi WNW 15.0 mph 21.9 mph N/A   Scattered Clouds
6:55 PM 6.1 °F -10.2 °F -2.9 °F 67% 30.36 in 10.0 mi WNW 12.7 mph 23.0 mph N/A   Scattered Clouds
7:55 PM 5.0 °F -10.8 °F -4.0 °F 66% 30.39 in 10.0 mi WNW 11.5 mph - N/A   Clear
8:55 PM 3.9 °F -12.2 °F -5.1 °F 66% 30.41 in 10.0 mi West 11.5 mph - N/A   Clear
9:55 PM 3.9 °F -13.0 °F -5.1 °F 66% 30.43 in 10.0 mi WNW 12.7 mph - N/A   Clear
10:55 PM 3.0 °F -13.3 °F -5.1 °F 69% 30.45 in 10.0 mi West 11.5 mph - N/A   Clear
11:55 PM 3.0 °F -11.5 °F -6.0 °F 66% 30.48 in 10.0 mi West 9.2 mph - N/A   Clear